Powrót do katalogu

NOAA 16 DEB

LostSSO
NORAD 41714·DEBRIS·🇺🇸 United States

Wystrzelony Sep 21, 2000 z Vandenberg Space Force Base

Loading…

Następne Przeloty (najbliższe 24 godziny)

TLE

NieaktualneSource: Space-Track

Epoka: Mar 24, 2023, 06:53 UTC

1 41714U 00055PU  23083.28740264  .00042277  00000-0  28342-1 0  9998
2 41714  98.9622 102.1923 0113167 224.4816 134.7219 13.97485590347629

Śledź NOAA 16 DEB w czasie rzeczywistym z AllMySat

Download on the App Store